Location: Unspecified
(0.0000°N, 0.0000°E)
Time: 01:47:05
(UTC+00:00)

Orbcomm A7 (FM11) - Visible Passes

Search period start: 16 May 2026 00:00
Search period end: 26 May 2026 00:00
Orbit: 734 x 740 km, 45.0° (Epoch: 15 May)

Date Brightness Start Highest point End Pass type
(mag) Time Alt. Az. Time Alt. Az. Time Alt. Az.
21 May 9.0 20:01:58 10° SW 20:03:10 17° SSW 20:03:10 17° SSW visible
22 May 7.3 19:13:17 10° SSW 19:18:09 38° SE 19:18:38 37° ESE visible
23 May 8.1 18:25:03 10° S 18:29:05 22° SE 18:33:06 10° E visible
23 May 8.1 20:08:38 10° WSW 20:13:30 39° NW 20:14:34 35° NNW visible
24 May 7.2 19:19:16 10° SW 19:24:28 69° NW 19:29:40 10° NE visible
25 May 6.9 18:30:14 10° SW 18:35:27 67° SE 18:40:38 10° NE visible
25 May 9.8 20:17:31 10° WNW 20:19:56 13° NW 20:22:20 10° NNW visible
